Precipitable_Water
0.26 0.29 0.31 0.49 0.66 0.74 0.79 0.87 0.90 0.91 0.97 1.00 0.99 1.10 1.24 1.42 1.36 1.30 1.29 1.32 1.16 1.26 1.38 1.46 1.41 1.59 1.55 1.68 1.66 1.72 1.63 1.62 1.68 1.70 1.72 1.72 1.59 1.66 1.67 1.86 1.69 1.73 1.75 1.71
0.25 0.27 0.38 0.51 0.68 0.58 0.62 0.78 0.73 0.79 0.90 0.95 0.98 1.09 1.23 1.32 1.30 1.33 1.34 1.54 1.38 1.27 1.37 1.37 1.43 1.43 1.49 1.53 1.66 1.77 1.77 1.70 1.63 1.69 1.76 1.74 1.70 1.65 1.80 1.82 1.66 1.73 1.67 1.68
0.28 0.30 0.50 0.46 0.50 0.42 0.43 0.58 0.67 0.69 0.78 0.91 0.90 0.97 1.08 1.26 1.31 1.28 1.27 1.47 1.55 1.39 1.51 1.36 1.42 1.41 1.50 1.48 1.56 1.70 1.78 1.74 1.67 1.72 1.84 1.81 1.82 1.77 1.62 1.71 1.65 1.65 1.63 1.67
0.31 0.45 0.43 0.38 0.41 0.45 0.40 0.54 0.52 0.56 0.60 0.65 0.82 0.64 1.01 1.11 1.19 1.34 1.26 1.44 1.55 1.59 1.39 1.53 1.41 1.39 1.47 1.51 1.60 1.70 1.73 1.72 1.66 1.81 1.72 1.68 1.64 1.53 1.51 1.62 1.64 1.73 1.67 1.69
0.33 0.36 0.32 0.35 0.40 0.48 0.51 0.67 0.61 0.63 0.55 0.64 0.63 0.61 0.89 1.09 1.07 1.24 1.28 1.43 1.37 1.26 1.29 1.37 1.40 1.47 1.48 1.60 1.56 1.58 1.71 1.71 1.70 1.67 1.91 1.71 1.57 1.63 1.60 1.65 1.77 1.78 1.67 1.69
0.32 0.34 0.33 0.32 0.35 0.42 0.47 0.53 0.58 0.59 0.57 0.42 0.56 0.58 0.78 0.96 1.06 1.18 1.26 1.29 1.38 1.46 1.17 1.36 1.44 1.50 1.50 1.54 1.65 1.56 1.64 1.72 1.68 1.72 1.82 1.70 1.61 1.61 1.54 1.68 1.59 1.54 1.64 1.60
0.26 0.26 0.27 0.31 0.33 0.39 0.35 0.45 0.39 0.39 0.40 0.41 0.63 0.48 0.76 0.90 1.09 1.18 1.22 1.38 1.34 1.44 1.16 1.54 1.33 1.72 1.48 1.54 1.57 1.59 1.60 1.63 1.68 1.67 1.67 1.67 1.71 1.88 1.58 1.57 1.52 1.53 1.53 1.51
0.28 0.24 0.31 0.36 0.37 0.42 0.38 0.46 0.44 0.43 0.44 0.50 0.68 0.49 0.66 0.87 1.07 1.27 1.32 1.36 1.34 1.20 1.45 1.34 1.23 1.57 1.44 1.59 1.58 1.57 1.58 1.62 1.71 1.68 1.62 1.66 1.70 1.61 1.63 1.64 1.60 1.54 1.57 1.54
0.36 0.30 0.36 0.45 0.40 0.48 0.52 0.34 0.44 0.47 0.58 0.49 0.59 0.64 0.67 0.85 1.04 1.30 1.30 1.34 1.31 1.35 1.35 1.26 1.36 1.41 1.49 1.59 1.62 1.64 1.65 1.59 1.66 1.64 1.72 1.66 1.64 1.63 1.63 1.63 1.55 1.60 1.63 1.80
0.47 0.34 0.40 0.38 0.41 0.47 0.49 0.71 0.38 0.36 0.36 0.39 0.62 0.50 0.57 0.72 0.96 1.09 1.05 1.15 1.36 1.42 1.37 1.30 1.30 1.25 1.32 1.59 1.67 1.71 1.73 1.68 1.65 1.65 1.62 1.67 1.72 1.71 1.72 1.85 1.77 1.66 1.66 1.54
0.43 0.38 0.48 0.44 0.37 0.36 0.44 0.38 0.59 0.55 0.58 0.51 0.56 0.63 0.75 0.73 0.88 0.98 0.99 1.05 1.21 1.47 1.39 1.40 1.32 1.29 1.37 1.48 1.65 1.71 1.75 1.76 1.72 1.72 1.71 1.68 1.68 1.73 1.71 1.63 1.64 1.62 1.62 1.65
0.54 0.40 0.38 0.42 0.46 0.54 0.49 0.55 0.53 0.40 0.57 0.54 0.54 0.61 0.93 0.83 0.87 0.96 1.00 1.12 1.35 1.55 1.47 1.42 1.39 1.45 1.28 1.53 1.58 1.67 1.76 1.75 1.77 1.81 1.77 1.68 1.69 1.71 1.69 1.64 1.64 1.66 1.62 1.69
0.52 0.37 0.31 0.31 0.40 0.47 0.41 0.37 0.47 0.51 0.53 0.59 0.48 0.60 1.00 0.88 0.95 1.07 1.06 1.11 1.27 1.67 1.55 1.57 1.50 1.41 1.36 1.29 1.67 1.55 1.69 1.78 1.87 1.81 1.83 1.83 1.82 1.77 1.71 1.69 1.68 1.72 1.72 1.75
0.31 0.27 0.32 0.32 0.43 0.53 0.47 0.49 0.56 0.57 0.53 0.50 0.45 0.61 0.85 0.90 0.91 1.04 1.19 1.16 1.17 1.32 1.58 1.61 1.43 1.50 1.35 1.57 1.45 1.54 1.62 1.69 1.81 1.79 1.79 1.81 1.83 1.82 1.82 1.81 1.80 1.81 1.83 1.77
0.35 0.29 0.32 0.33 0.38 0.43 0.46 0.54 0.57 0.57 0.47 0.45 0.50 0.56 0.51 0.87 1.02 1.04 1.19 1.28 1.29 1.22 1.41 1.56 1.53 1.41 1.48 1.58 1.51 1.59 1.65 1.65 1.69 1.71 1.75 1.69 1.76 1.86 1.91 1.92 1.90 1.92 1.92 1.91
0.45 0.32 0.32 0.29 0.28 0.25 0.29 0.40 0.48 0.53 0.58 0.52 0.52 0.64 0.96 0.87 0.94 0.99 1.11 1.19 1.29 1.37 1.27 1.38 1.51 1.49 1.41 1.46 1.61 1.63 1.66 1.71 1.70 1.70 1.73 1.76 1.82 1.83 1.77 1.77 1.81 1.83 1.82 1.87
0.42 0.35 0.29 0.27 0.32 0.35 0.31 0.35 0.39 0.40 0.51 0.57 0.61 0.76 1.16 0.83 0.90 1.00 1.04 1.12 1.20 1.45 1.61 1.53 1.62 1.60 1.68 1.60 1.67 1.76 1.75 1.80 1.77 1.76 1.79 1.79 1.80 1.81 1.86 1.91 1.85 1.82 1.82 1.76
0.34 0.33 0.34 0.27 0.31 0.26 0.37 0.57 0.58 0.53 0.58 0.67 0.81 1.00 0.85 1.06 1.00 1.06 1.12 1.10 1.22 1.41 1.52 1.64 1.70 1.77 1.80 1.92 1.97 1.86 1.85 1.82 1.86 1.85 1.87 1.87 1.89 1.88 1.99 1.99 1.98 2.08 1.99 1.97
0.43 0.35 0.33 0.34 0.35 0.32 0.35 0.46 0.40 0.40 0.43 0.61 0.80 0.84 0.95 0.91 0.96 1.00 1.16 1.21 1.26 1.44 1.55 1.66 1.79 1.76 1.82 1.88 1.95 1.95 1.84 1.91 1.91 1.80 1.79 1.84 1.80 1.77 1.87 1.76 1.95 2.09 2.08 2.13
0.44 0.44 0.35 0.36 0.35 0.33 0.46 0.64 0.82 0.57 0.37 0.58 0.66 0.99 0.93 0.87 0.67 1.00 1.22 1.24 1.30 1.45 1.58 1.62 1.76 1.77 1.66 1.78 2.00 1.92 1.84 1.86 1.85 1.96 1.97 2.03 1.98 1.92 2.09 2.08 2.11 2.14 2.15 2.10
0.44 0.44 0.38 0.39 0.36 0.42 0.59 0.66 0.75 0.32 0.42 0.71 0.87 0.85 1.06 0.85 0.99 1.15 1.29 1.26 1.36 1.49 1.55 1.67 1.72 1.63 1.76 1.90 1.84 1.76 1.84 1.76 1.91 1.96 2.00 1.98 2.03 2.02 1.96 1.97 1.98 1.88 1.89 1.93
0.37 0.34 0.38 0.41 0.35 0.35 0.71 0.62 0.50 0.70 0.80 0.84 0.85 1.02 1.04 1.08 1.05 1.08 1.17 1.24 1.33 1.38 1.50 1.64 1.58 1.71 1.76 1.87 1.78 1.70 1.69 1.92 1.95 1.95 1.91 1.98 1.97 1.98 1.91 1.84 1.84 1.81 1.83 1.84
0.37 0.38 0.36 0.50 0.47 0.66 0.66 0.59 0.60 0.90 0.77 0.79 0.88 0.92 1.40 0.98 1.02 1.09 1.13 1.29 1.35 1.38 1.48 1.59 1.57 1.61 1.73 1.86 1.85 1.77 1.87 1.94 1.95 1.94 1.88 1.84 1.82 1.83 1.81 1.71 1.68 1.69 1.74 1.74
0.48 0.52 0.42 0.33 0.43 0.51 0.56 0.62 0.63 0.69 0.80 0.87 0.97 1.06 1.10 1.12 1.11 1.12 1.17 1.28 1.33 1.39 1.44 1.55 1.54 1.49 1.49 1.58 1.61 1.63 1.74 1.80 1.74 1.66 1.67 1.71 1.71 1.70 1.66 1.65 1.68 1.66 1.66 1.65
0.54 0.64 0.55 0.43 0.48 0.57 0.58 0.66 0.72 0.82 0.85 0.95 1.05 1.10 1.09 1.13 1.16 1.18 1.14 1.23 1.29 1.39 1.46 1.51 1.50 1.48 1.50 1.61 1.67 1.72 1.70 1.66 1.55 1.52 1.57 1.55 1.54 1.49 1.53 1.56 1.61 1.63 1.65 1.66
0.49 0.49 0.42 0.40 0.56 0.57 0.60 0.74 0.80 0.90 0.91 0.96 1.03 1.06 1.15 1.19 1.18 1.22 1.13 1.26 1.29 1.28 1.35 1.37 1.44 1.46 1.54 1.59 1.64 1.65 1.63 1.59 1.52 1.47 1.46 1.47 1.46 1.45 1.48 1.46 1.47 1.61 1.63 1.61
Wind_Speed
12 13 14 15 12 6 7 6 9 6 6 6 7 4 8 19 17 17 12 12 15 14 12 12 13 13 13 13 13 13 13 14 15 14 13 12 12 11 10 11 11 11 11 11
9 13 14 9 9 13 12 6 4 5 9 10 7 4 6 15 18 19 18 16 15 16 12 13 13 13 14 14 14 14 13 13 14 14 14 12 12 11 10 11 11 10 11 11
9 9 6 10 11 13 14 10 9 7 8 7 7 5 9 10 13 21 22 19 14 14 18 14 14 15 14 14 14 15 14 14 15 15 15 14 12 11 11 11 10 10 10 11
9 6 6 12 14 13 14 10 12 9 12 8 14 6 12 13 13 19 28 21 18 22 17 17 15 15 15 14 14 15 15 14 15 16 16 15 13 11 11 11 10 10 10 10
5 7 10 12 13 11 9 11 13 11 13 13 9 11 10 12 14 14 30 27 20 20 19 19 16 16 15 15 15 15 16 15 16 17 15 16 15 12 11 11 11 9 10 10
6 7 10 10 10 12 13 11 12 14 15 15 8 10 8 12 15 15 26 27 24 21 22 20 17 18 16 16 16 16 17 17 16 17 16 16 15 12 12 12 10 10 10 10
7 9 10 10 11 11 15 15 11 12 13 10 10 10 8 11 13 15 20 29 26 23 22 21 20 20 17 17 17 17 17 17 17 17 17 17 15 13 13 12 11 10 10 9
7 9 11 10 14 8 14 17 12 5 6 7 12 8 8 6 10 14 17 22 28 25 22 20 22 22 20 19 18 17 18 18 18 18 17 17 16 15 13 13 12 11 9 9
4 7 6 8 11 12 9 16 16 10 9 9 9 9 9 5 4 14 15 19 23 27 26 24 24 21 21 20 19 18 18 18 18 19 18 17 17 16 15 14 14 12 11 8
3 9 7 10 11 14 15 10 12 12 10 11 6 9 10 10 9 10 10 12 21 25 30 28 25 24 22 21 20 19 18 18 19 18 18 18 17 16 16 14 14 13 11 13
9 9 6 8 11 13 11 16 15 9 5 7 4 2 5 8 8 10 9 13 18 26 33 31 26 25 24 22 21 20 19 19 19 19 19 18 17 17 16 16 15 15 14 12
5 9 10 12 7 6 7 15 20 18 17 10 8 11 8 7 10 9 7 9 13 18 31 29 28 27 25 23 23 21 20 19 19 19 19 18 17 17 16 16 16 15 15 14
6 8 11 13 14 15 14 18 15 12 11 11 8 7 4 6 8 11 6 4 6 18 24 25 28 27 26 27 24 23 22 20 19 19 19 19 18 18 17 16 16 16 16 15
8 11 13 11 10 15 17 15 17 15 13 16 13 9 10 9 9 7 6 5 5 15 25 23 26 25 27 26 27 25 24 22 20 20 19 19 19 18 17 17 16 16 16 16
9 12 13 15 15 16 17 11 19 18 19 17 5 13 8 9 10 8 7 7 9 5 21 24 26 29 27 25 26 27 25 24 22 21 20 19 19 18 18 17 17 16 16 16
10 12 12 15 17 19 21 22 21 17 20 17 18 15 6 9 11 12 10 8 8 12 16 24 25 30 31 31 27 27 27 25 24 22 21 20 19 18 18 17 17 17 18 18
10 12 13 15 14 13 17 20 23 24 23 16 16 16 11 10 14 11 11 10 10 9 13 18 22 23 31 32 31 28 28 27 26 24 23 21 20 20 19 19 19 20 19 20
13 13 13 14 14 16 14 10 13 19 22 18 19 11 12 10 11 12 11 11 11 11 10 12 16 18 24 27 26 31 28 28 27 25 24 22 21 21 20 21 21 22 22 22
10 12 13 13 14 15 12 11 16 22 22 23 22 22 15 13 14 15 13 10 11 10 11 12 12 16 18 24 31 29 29 26 26 26 25 23 22 23 23 25 25 25 26 25
10 10 12 13 11 13 6 9 10 11 20 21 23 19 17 17 17 14 14 12 12 11 11 11 11 11 15 14 24 28 28 28 26 24 24 23 23 23 21 21 22 23 24 25
10 10 13 13 13 12 7 10 11 13 13 15 17 15 14 16 15 15 14 12 13 13 12 11 12 13 11 13 18 20 27 26 25 24 23 22 21 21 22 22 22 24 25 26
11 11 12 11 11 13 10 12 15 10 13 13 16 14 14 16 15 15 14 14 13 15 13 12 11 13 13 13 14 15 18 18 19 19 20 20 18 19 20 20 19 18 19 22
11 12 11 9 8 10 12 14 15 13 14 14 16 19 18 20 15 14 14 14 14 14 14 13 12 12 11 13 14 14 14 16 16 15 16 17 17 15 15 14 12 12 11 9
14 13 12 14 14 14 13 15 15 17 16 14 13 18 14 11 13 13 14 14 14 15 14 13 12 11 10 11 12 12 13 13 13 12 11 12 12 12 12 12 12 11 10 12
8 8 11 14 16 16 14 14 13 14 16 14 13 15 16 14 14 15 14 13 13 14 14 13 13 12 11 11 11 11 10 11 10 9 9 10 10 9 10 9 9 10 10 9
14 14 14 14 11 11 12 11 11 12 13 16 15 15 17 17 15 18 17 14 14 13 12 12 12 12 12 12 12 12 12 11 10 9 9 9 9 9 10 10 9 9 10 11
Wind_Direction
211 219 222 226 229 218 182 196 186 178 202 195 239 256 213 203 213 209 197 201 186 180 177 171 173 172 171 170 171 170 169 169 171 170 168 163 158 155 154 148 147 147 145 148
204 229 223 232 222 228 234 222 211 225 223 248 229 236 182 200 216 209 214 200 199 188 183 177 175 178 177 177 179 176 175 176 177 175 172 168 165 159 159 154 154 152 153 154
219 220 203 221 226 232 237 236 230 205 235 243 229 211 201 205 207 219 220 213 213 198 187 184 183 182 182 178 182 183 182 180 179 176 175 172 166 161 160 158 160 159 157 161
234 213 236 226 233 228 243 230 243 244 244 236 258 265 213 206 221 227 216 207 216 209 207 190 185 188 185 183 185 183 184 182 181 180 177 174 175 171 169 166 163 163 166 165
215 232 226 232 231 225 228 238 249 242 260 271 234 266 202 213 222 225 206 209 210 211 206 195 193 189 189 186 186 186 186 183 181 182 182 181 180 174 174 174 171 171 175 177
266 236 230 234 233 237 240 247 247 244 246 251 232 253 215 220 224 220 205 210 210 208 203 200 203 194 190 190 188 189 187 188 186 185 186 185 185 187 182 179 179 182 181 185
225 227 232 240 235 224 228 233 237 234 228 242 228 265 240 223 211 206 203 209 209 205 209 207 202 196 194 193 189 191 190 192 191 190 191 191 192 193 189 188 187 186 186 191
245 214 218 219 233 228 226 235 246 238 279 260 233 241 249 249 219 205 205 203 204 209 210 206 202 204 198 196 193 193 193 194 196 196 196 197 199 199 199 197 197 198 199 204
257 217 212 213 230 241 234 229 244 269 221 245 214 230 218 237 191 179 202 203 207 215 213 208 203 201 199 197 196 197 196 197 197 198 198 200 201 203 203 205 206 209 212 207
292 257 231 221 241 239 242 252 229 230 239 249 237 235 208 216 210 196 198 225 217 213 215 211 205 201 200 199 198 198 197 198 198 199 200 202 203 205 207 210 209 217 218 220
281 263 240 237 235 247 229 235 234 238 209 215 268 281 196 203 213 209 231 247 241 219 209 209 204 202 201 202 199 199 199 199 201 202 204 205 208 210 214 218 219 221 221 224
299 266 257 233 260 212 227 238 254 245 215 228 225 253 250 227 220 217 240 264 239 219 201 204 206 203 204 204 201 201 201 201 203 205 205 206 209 213 216 219 221 223 226 229
311 250 257 254 235 235 245 244 245 243 231 235 250 244 190 212 219 216 217 256 237 204 206 208 204 206 206 206 205 205 205 206 206 206 208 210 213 215 218 220 222 225 228 231
273 263 272 272 265 255 261 268 276 227 231 240 236 230 214 221 217 221 226 220 244 218 206 209 213 213 209 207 209 208 208 209 209 210 211 212 214 216 219 222 224 227 231 232
261 271 273 273 275 266 261 233 253 264 250 248 216 255 251 209 204 219 232 231 228 216 210 211 214 215 210 209 209 211 211 211 211 211 213 215 216 219 221 224 227 230 233 236
260 273 273 276 273 264 259 255 250 236 247 257 265 247 236 219 221 217 231 228 227 215 209 219 222 215 216 216 212 212 213 213 214 215 217 218 219 221 225 229 233 236 240 242
264 276 278 274 282 274 266 257 251 248 246 246 234 241 283 233 218 219 228 230 224 224 222 221 217 215 214 213 215 215 215 215 215 218 219 221 224 228 232 235 239 242 245 247
262 268 272 272 277 265 267 270 263 266 238 243 243 223 236 234 226 228 227 228 225 224 226 216 211 208 209 211 213 215 217 217 218 221 221 224 230 234 238 243 246 249 250 251
255 265 270 273 264 267 265 263 251 249 253 246 227 253 227 234 227 227 227 228 218 221 222 219 215 215 216 220 216 213 214 216 219 222 225 230 236 243 246 254 253 255 254 255
257 257 264 270 281 278 292 283 267 270 258 252 239 235 221 232 235 221 229 232 219 220 221 212 209 205 208 205 210 210 214 219 219 221 227 236 242 245 249 252 256 258 259 255
247 252 258 258 264 272 273 255 278 259 255 258 256 256 224 225 228 225 229 230 224 218 219 214 206 206 208 202 207 215 217 222 221 223 231 234 244 244 248 256 263 265 263 261
254 262 265 259 268 267 281 263 264 268 271 262 257 247 224 216 221 220 224 225 225 219 216 214 208 208 211 208 199 198 203 212 212 223 227 231 238 245 252 257 265 267 264 263
253 254 270 277 289 276 277 275 266 272 266 264 250 229 228 202 208 213 215 216 214 215 215 215 209 206 208 203 203 205 208 208 212 217 225 233 237 243 248 249 252 261 263 258
247 248 266 271 271 278 276 274 270 259 254 254 241 231 239 206 197 205 206 207 212 213 211 209 206 205 207 210 207 205 206 207 212 214 221 225 225 230 240 249 256 257 257 253
266 243 266 277 275 275 271 265 268 259 241 243 232 221 220 216 214 206 201 201 202 205 206 208 204 205 204 198 197 201 201 199 206 214 221 225 226 236 243 250 254 257 259 258
262 256 261 269 296 282 280 271 264 253 238 234 228 223 215 212 212 205 201 203 198 197 196 198 202 202 206 207 205 210 214 215 216 217 225 228 240 248 247 250 258 263 261 266